Regional Weather Roundup
Issued by NWS Northern Indiana

Home | Current Version | Previous Version | Text Only | Print | Product List | Glossary Off
Versions: 1 2 3 4 5 6 7 8 9 10 11 12 13 14 15 16 17 18 19 20 21 22 23 24 25 26 27 28 29 30 31 32 33 34 35 36 37 38 39 40 41 42 43 44 45 46 47 48 49 50

000
ASUS43 KIWX 102000
RWRIWX

KIWX WEATHER ROUNDUP
NATIONAL WEATHER SERVICE NORTHERN INDIANA
300 PM EST SAT DEC 10 2016

NOTE: "FAIR" INDICATES FEW OR NO CLOUDS BELOW 12,000 FEET WITH NO
SIGNIFICANT WEATHER AND/OR OBSTRUCTIONS TO VISIBILITY.

* THESE STATIONS ARE NOT UNDER NWS QUALITY CONTROL. THEY ALSO MAY NOT
  REPORT WEATHER SUCH AS PRECIPITATION OR FOG.

INZ001>027-102100-
NORTHERN INDIANA

CITY           SKY/WX    TMP DP  RH WIND       PRES   REMARKS
GARY*          CLOUDY    27  14  59 SW8       30.45F WCI  18
SOUTH BEND     CLOUDY    23  15  71 SW8       30.45S WCI  14
ELKHART*       CLOUDY    25  16  68 W12       30.44F WCI  14
GOSHEN         CLOUDY    25  12  58 W9        30.44S WCI  15
ANGOLA*        CLOUDY    25  16  68 W9        30.41S WCI  15
FORT WAYNE     FLURRIES  26  14  60 W9        30.46S WCI  17
PERU/GRISSOM   CLOUDY    28  15  57 W8        30.43F WCI  20

$$
INZ028>050-102100-
CENTRAL INDIANA

CITY           SKY/WX    TMP DP  RH WIND       PRES   REMARKS
LAFAYETTE      PTSUNNY   27  15  61 SW5       30.46F WCI  22
KOKOMO*        CLOUDY    28  16  60 SW8       30.46F WCI  20
MUNCIE*        CLOUDY    28  16  60 W9        30.45F WCI  19
INDIANAPOLIS   CLOUDY    29  15  56 SW7       30.46F WCI  22

$$
MIZ043>046-050>051-056>058-064>065-071>073-077>080-102100-
SOUTHWEST LOWER MICHIGAN

CITY           SKY/WX    TMP DP  RH WIND       PRES   REMARKS
BATTLE CREEK   LGT SNOW  23  20  88 SW12      30.39F FOG     WCI  12
BENTON HARBOR  CLOUDY    26  15  63 W12       30.43F WCI  16
HOLLAND        CLOUDY    26  15  63 W9        30.41F WCI  17
GRAND RAPIDS   LGT SNOW  24  19  81 W5        30.40S WCI  18
KALAMAZOO      LGT SNOW  24  18  77 SW8       30.41S WCI  15

$$
OHZ001>008-015>018-024>025-102100-
NORTHWEST OHIO

CITY           SKY/WX    TMP DP  RH WIND       PRES   REMARKS
DEFIANCE       PTSUNNY   28  13  53 W10G16    30.45S WCI  19
FINDLAY        CLOUDY    27  15  61 W13       30.44F WCI  16
TOLEDO EXPRESS PTSUNNY   28  15  58 SW16      30.43S WCI  16
TOLEDO METCALF CLOUDY    28  15  58 SW14      30.44S WCI  17
LIMA           CLOUDY    25  18  74 W9        30.44F WCI  15

$$
AND FOR LAKE MICHIGAN COASTAL AND OPEN LAKE BUOY OBSERVATIONS

STATION/POSITION TEMP    WIND        PRES    VSBY  WAVE
                 AIR SEA DIR/SP/G                  HT/PER
                 (F)     (DEG/KT/KT) (MB)    (MI)  (FT/S)
CALUMET HARBOR    24     220/  6/ 10 1030.2F
BURNS HARBOR      25     220/  5/ 10 1031.2F
SAINT JOSEPH      28     260/ 13/ 16 1030.8

$$
&&




USA.gov is the U.S. government's official web portal to all federal, state and local government web resources and services.